RH
16 9 10 9 25 24 19 18 17 36 44 60 74 65 71 60 50 75 96 99 67 69 65 44 41 35 33 36 39 40 37 31 25 18 17 13 5 5 15 17 20 22 22 23 24 25 25 24 24
16 9 13 18 22 17 16 30 52 46 60 66 63 53 63 73 74 85 89 91 74 78 60 47 42 37 37 40 38 34 25 20 17 17 15 6 6 16 21 24 24 27 28 28 29 30 30 29 28
16 8 22 18 18 21 16 51 38 54 79 68 48 44 46 58 81 92 86 82 78 78 53 55 44 40 42 37 32 25 29 21 15 14 7 7 18 24 25 28 30 32 33 32 32 32 33 33 31
11 12 14 19 20 17 22 31 50 72 76 69 62 60 62 67 68 89 97 98 80 78 65 65 64 44 46 37 30 28 24 8 13 6 9 19 26 28 31 34 36 33 33 32 32 32 31 28 30
18 22 17 17 17 17 17 49 66 65 77 62 78 72 71 68 77 95 96 97 93 80 95 83 70 50 49 32 28 24 6 6 5 12 21 27 31 33 36 37 34 35 38 41 42 43 41 36 36
26 19 20 21 17 14 24 54 60 77 76 76 68 70 55 57 71 82 81 99 99 98 96 82 64 52 48 34 28 9 4 4 12 22 29 33 34 37 38 37 36 37 39 44 48 50 48 47 43
24 22 20 20 19 20 27 46 52 56 74 77 83 73 57 50 57 84 90 97 94 97 86 85 58 56 45 27 18 4 3 9 22 29 34 37 39 38 37 38 40 42 43 48 52 52 53 53 49
21 22 22 20 19 53 59 60 57 54 67 70 64 88 50 54 62 80 83 94 96 92 97 76 64 53 27 27 13 6 7 19 28 35 38 40 39 38 39 42 45 47 48 52 55 56 54 55 55
22 21 22 22 38 55 65 73 82 70 60 68 64 82 82 58 64 80 86 97 97 98 71 68 48 37 28 24 10 8 11 26 33 39 41 40 39 40 46 47 50 52 53 54 57 58 60 58 64
23 23 23 38 31 32 44 64 84 58 63 63 81 40 54 62 57 81 92 98 97 73 77 46 30 27 25 12 6 7 16 29 38 41 41 40 43 44 46 54 58 58 62 57 60 64 61 61 67
21 25 24 36 35 37 38 54 65 56 53 66 88 60 47 41 64 84 99 98 77 82 55 28 27 27 20 8 6 8 20 31 39 43 45 44 49 52 62 64 73 100 71 63 61 62 60 70 66
22 26 24 45 45 38 53 95 76 68 48 51 78 46 27 46 67 83 94 82 78 64 31 25 28 25 16 8 9 12 24 36 42 45 45 54 58 67 73 72 64 76 85 94 76 78 73 68 51
24 26 28 24 54 43 47 58 58 46 45 66 90 52 76 56 95 96 87 73 58 27 22 24 23 20 14 12 12 18 26 36 49 69 60 78 71 75 76 80 69 80 79 79 87 74 67 50 37
24 26 35 40 43 43 46 51 60 50 77 88 74 87 76 72 88 70 68 30 25 25 30 32 17 16 16 12 19 24 30 39 53 56 78 74 75 72 76 76 75 81 75 75 75 53 37 34 32
30 34 37 42 44 48 57 56 49 53 75 82 76 78 84 79 63 61 50 33 30 43 37 27 21 17 19 21 24 31 35 42 48 57 74 68 65 78 81 79 83 81 80 49 34 33 31 31 29
28 33 39 33 43 45 46 69 46 53 64 70 70 68 65 55 56 55 61 87 64 55 62 54 55 56 62 39 40 41 44 66 65 48 68 61 69 88 84 85 75 53 35 34 34 37 38 37 36
32 29 29 31 31 39 44 37 38 49 54 59 56 56 50 54 57 59 63 77 73 54 58 64 70 70 82 78 89 87 88 89 83 72 80 74 72 79 88 71 44 42 38 33 32 31 30 28 24
27 23 23 23 25 28 30 26 32 44 51 54 52 47 47 49 48 47 47 77 88 48 50 70 72 85 87 88 94 86 47 49 54 54 69 75 76 71 44 40 43 46 45 41 39 35 29 23 18
26 23 25 21 22 20 18 26 26 33 43 54 56 56 56 57 58 58 44 52 71 58 60 67 78 84 84 90 93 63 35 38 39 44 66 49 37 41 51 52 57 52 43 44 41 32 27 20 19
20 24 22 16 17 15 17 17 27 30 37 47 57 62 64 69 64 38 48 53 56 62 61 68 75 81 90 89 79 42 45 52 57 47 48 52 50 55 61 62 61 51 50 40 33 25 18 19 16
20 30 23 32 19 18 21 18 28 34 36 39 48 58 68 74 80 58 52 59 62 64 64 71 76 80 80 65 44 52 58 54 49 55 58 63 74 71 73 65 57 55 43 35 23 16 15 14 13
24 39 28 33 26 21 30 34 29 32 38 41 43 51 59 70 84 75 52 45 49 58 61 63 65 68 50 47 59 66 77 68 76 78 82 77 74 78 80 70 58 46 36 20 15 15 13 11 9
28 30 30 24 20 27 27 43 41 37 35 40 52 55 58 68 82 98 96 71 48 42 57 65 54 48 47 75 74 77 84 99 99 97 92 89 93 88 79 61 52 40 23 14 14 12 10 6 5
32 30 29 26 28 33 30 40 43 44 44 46 56 59 68 78 92 98 100 98 50 45 56 52 51 50 53 79 76 75 74 80 88 87 84 84 96 99 84 44 30 20 12 12 12 9 6 5 4
28 26 31 71 72 41 19 26 20 42 44 43 53 69 75 93 92 85 84 81 72 59 54 56 61 69 65 72 67 72 77 85 90 92 97 94 99 76 44 30 20 13 14 13 10 7 5 5 7
36 29 49 58 62 41 32 23 33 34 29 28 56 66 81 78 77 79 68 62 58 57 61 66 72 70 56 58 62 70 78 89 92 95 96 99 86 56 39 26 16 16 16 12 8 6 6 7 12
36 32 34 28 31 38 22 15 40 36 17 14 61 73 76 82 78 78 76 77 65 63 62 71 73 68 57 64 66 75 85 91 100 99 99 96 66 46 27 18 16 17 14 10 6 6 7 8 10
25 30 32 27 39 38 19 17 42 39 40 15 58 75 85 83 88 82 86 85 86 70 66 72 74 72 70 67 69 87 91 100 99 99 99 72 50 32 22 19 20 15 12 7 6 7 8 10 14
39 37 27 23 29 47 50 27 24 28 36 33 48 68 82 70 65 72 88 94 92 96 86 69 74 88 91 78 84 89 98 100 99 98 90 57 38 23 20 23 16 13 8 7 8 9 11 13 17
33 33 30 33 34 33 34 39 24 27 22 30 44 58 75 81 67 80 90 97 96 100 100 98 82 93 88 89 84 99 100 100 100 97 72 44 26 18 33 23 16 10 7 8 10 11 13 14 23
Wind_Speed
9 7 3 7 8 11 20 24 23 16 17 18 4 6 4 13 15 13 19 14 6 17 25 22 22 22 19 17 14 10 8 5 4 2 2 1 4 5 5 5 7 8 9 9 9 10 10 10 10
8 8 5 5 14 19 23 10 7 19 13 13 16 9 8 10 9 10 14 15 14 25 24 24 24 23 20 16 12 9 7 5 4 3 2 4 5 4 6 8 9 9 10 10 10 10 10 11 11
7 7 8 12 18 26 27 9 16 11 1 6 9 18 22 21 16 10 13 12 21 28 27 23 22 22 19 14 11 8 5 5 5 4 6 7 5 6 8 9 9 9 9 9 9 10 12 13 13
4 1 10 13 22 22 15 15 13 9 1 5 7 9 13 18 22 15 16 21 27 29 28 24 19 20 17 13 10 6 4 5 7 9 9 7 8 8 8 8 8 8 9 10 11 12 14 14 13
5 7 16 18 18 20 19 7 6 5 2 5 6 8 10 12 16 13 23 30 31 31 30 28 22 20 15 12 8 4 4 8 10 9 9 9 9 8 7 6 6 7 7 9 12 14 16 16 14
11 9 16 21 21 19 9 11 16 6 9 1 2 6 6 6 14 13 19 24 28 28 29 21 19 18 14 11 7 6 9 10 10 10 11 9 9 7 5 3 4 6 8 10 12 14 17 18 17
12 14 21 20 20 16 13 16 18 20 6 14 8 3 2 2 7 21 25 18 20 16 28 22 20 15 13 10 7 8 9 9 9 10 10 9 8 5 2 1 3 5 8 10 12 15 17 18 19
13 15 21 23 24 3 4 8 8 6 21 18 9 6 2 3 5 7 8 24 17 26 20 15 12 12 12 8 7 8 9 10 11 11 9 8 6 3 2 2 5 7 9 10 13 15 18 19 21
12 19 22 20 18 6 7 6 2 1 7 6 8 8 5 2 6 11 10 22 20 26 22 19 17 15 10 7 8 9 11 12 13 10 9 8 6 3 3 6 8 10 12 13 14 16 18 21 22
15 19 17 14 20 23 24 16 8 5 9 6 7 8 4 3 6 6 8 19 25 21 21 21 16 12 9 9 10 12 14 15 14 11 10 9 6 7 7 9 12 12 14 17 17 18 20 23 26
16 20 14 8 12 16 9 6 7 10 6 11 13 2 1 8 13 12 16 19 11 16 15 13 11 9 8 11 12 14 15 15 13 11 10 7 6 7 11 13 15 12 19 21 22 25 26 27 28
17 14 14 4 4 7 3 7 8 5 5 14 12 3 7 10 14 15 17 16 16 13 12 10 8 9 6 10 14 16 16 16 17 12 11 9 9 11 11 15 25 27 25 20 25 27 29 31 33
13 15 9 5 4 4 6 6 2 13 3 12 12 2 10 11 11 19 14 15 14 12 10 10 11 11 13 16 15 19 20 20 16 11 10 10 11 14 18 18 23 27 26 27 29 32 33 33 33
7 10 3 8 6 4 8 15 7 10 12 9 10 15 12 13 13 17 14 11 9 8 8 8 8 10 14 14 17 19 20 19 18 15 12 11 17 18 19 21 25 26 25 29 31 34 34 35 36
2 3 8 9 12 6 11 13 12 10 10 17 17 16 16 15 15 13 10 7 6 4 4 5 6 7 9 11 12 16 20 20 19 16 17 13 24 21 18 24 27 28 28 31 33 34 36 37 37
8 3 2 1 4 4 3 13 14 10 15 16 18 18 19 18 16 12 10 10 7 7 7 5 4 5 7 9 14 17 21 24 28 28 26 25 28 25 24 26 26 28 30 32 34 35 36 38 40
8 10 14 9 10 5 4 6 11 13 13 14 15 16 16 16 11 13 13 13 13 11 11 9 11 10 14 15 15 18 21 22 22 33 30 34 36 26 24 26 23 25 30 33 35 35 36 37 38
15 16 12 9 10 11 11 9 15 15 14 13 15 16 19 21 19 15 17 14 15 10 8 15 16 15 18 21 22 17 14 14 10 11 13 22 21 21 22 21 23 26 33 35 36 38 37 38 39
6 8 14 13 12 11 12 15 15 17 16 16 16 17 18 16 22 23 16 20 21 23 19 18 16 19 22 22 17 13 9 7 7 8 12 17 18 17 21 25 27 29 33 35 37 38 39 39 40
9 10 10 12 10 12 15 13 12 18 19 20 19 19 20 19 23 19 20 20 23 26 22 18 22 22 21 16 14 11 7 8 10 12 16 16 18 22 25 27 31 33 33 34 37 37 38 39 40
13 9 12 10 8 11 8 14 17 17 18 20 21 21 21 22 25 23 22 24 27 28 25 23 22 16 15 12 11 10 12 12 14 16 19 19 21 22 26 28 30 34 35 35 35 37 39 40 38
10 3 7 13 14 14 5 10 16 15 18 22 25 25 25 24 26 25 25 28 26 24 26 19 17 15 13 11 13 12 15 16 19 20 24 23 26 27 30 31 34 33 34 35 36 36 37 38 41
3 9 7 12 12 8 5 13 28 24 27 28 27 24 24 24 23 24 24 24 22 21 18 19 15 12 11 13 14 14 14 15 17 20 25 28 32 37 36 36 36 37 38 39 39 39 40 40 41
2 4 10 12 15 11 17 22 13 22 23 23 21 24 25 26 27 26 22 24 17 15 16 14 13 15 14 16 17 15 17 20 24 25 27 30 33 34 33 36 38 38 38 39 39 39 39 40 40
6 10 7 7 9 5 10 10 4 12 15 12 23 20 19 27 30 27 25 22 21 16 15 13 14 19 19 18 18 20 21 23 27 30 31 34 34 32 31 34 37 37 38 38 39 39 39 40 40
11 7 3 3 3 6 9 5 6 7 6 6 13 15 22 24 24 21 21 21 19 18 16 15 17 22 20 19 20 21 25 28 30 33 34 35 36 32 33 35 36 37 39 40 41 40 39 38 38
11 5 1 9 4 5 10 16 3 4 6 4 11 16 19 18 18 20 21 21 21 21 19 18 21 24 23 23 25 26 28 31 33 36 37 37 34 32 33 35 37 38 39 41 41 41 39 37 37
8 7 4 4 2 4 11 15 14 5 4 2 12 16 19 17 18 20 22 23 24 25 24 22 22 27 26 28 28 30 33 34 37 38 36 34 33 31 34 37 39 40 41 41 41 42 39 35 35
7 9 10 11 7 1 4 5 6 5 5 3 10 16 19 17 16 19 23 24 25 28 28 27 23 27 31 34 32 35 38 41 45 38 32 34 33 33 36 38 39 40 40 39 40 41 39 38 35
8 10 9 11 9 6 4 10 3 3 1 2 6 13 16 20 17 20 21 26 28 30 29 33 29 31 35 36 36 36 39 42 44 40 34 34 33 33 36 39 40 40 39 39 39 39 37 37 34
Wind_Direction
259 225 218 201 239 244 256 256 259 257 200 224 181 133 143 213 215 195 166 191 223 197 175 169 165 154 155 156 156 160 163 174 186 208 297 344 99 95 85 83 76 70 63 56 45 34 23 17 10
257 217 244 218 242 252 253 288 98 212 211 200 180 227 247 236 209 190 193 215 203 178 177 171 163 156 158 157 163 165 167 188 211 234 227 133 117 105 94 84 77 69 57 49 39 29 20 13 8
253 226 231 242 242 248 261 59 253 254 259 259 300 277 244 235 222 212 204 211 189 172 173 166 163 159 157 165 165 164 189 221 228 188 148 135 123 108 95 85 78 67 56 44 34 25 18 11 5
199 338 249 250 254 252 255 268 255 224 233 224 211 248 235 235 229 204 190 179 182 174 165 163 165 171 164 171 169 178 217 203 172 154 145 135 124 110 100 93 80 67 54 44 35 28 22 15 8
259 212 244 259 257 261 267 166 163 196 220 301 245 224 227 236 239 189 205 194 177 170 170 162 165 169 172 172 172 186 181 156 154 149 145 137 129 119 110 95 77 59 46 35 21 20 21 19 11
231 245 258 256 248 249 227 195 185 123 145 49 290 188 232 199 217 216 230 156 170 186 161 151 169 173 177 181 182 177 168 164 160 157 148 141 133 132 126 103 53 30 20 14 11 7 10 9 4
235 240 251 263 270 279 263 244 248 250 183 149 140 298 235 239 170 194 196 202 197 179 142 168 175 177 184 187 183 179 176 169 163 159 156 149 149 145 135 26 355 359 358 358 359 354 356 356 354
243 253 268 274 273 27 242 269 273 239 211 222 326 227 234 314 164 170 167 220 205 153 152 157 170 185 190 195 184 182 184 174 172 173 166 162 164 179 217 305 333 335 337 339 342 342 340 340 342
239 254 257 270 299 277 202 360 83 122 230 148 191 318 198 43 195 203 201 151 163 129 136 161 186 200 197 191 186 190 186 182 184 181 179 189 209 241 311 320 322 323 320 323 321 323 328 329 331
237 241 260 318 295 304 279 286 214 254 192 182 191 207 278 260 177 174 159 154 146 141 163 178 182 199 199 192 194 194 194 193 192 192 203 221 253 300 318 322 316 307 315 309 312 313 318 326 328
238 246 274 282 323 329 311 206 207 198 165 188 221 231 161 156 172 168 153 146 124 166 171 171 188 202 211 207 198 198 204 205 203 208 223 260 281 299 308 307 328 301 307 303 312 315 322 320 317
240 250 266 260 29 56 79 147 302 105 280 146 174 283 155 158 167 165 165 169 175 174 175 191 211 235 231 211 205 203 208 207 211 217 243 263 280 295 300 318 320 308 300 292 309 310 315 313 314
242 257 272 275 147 162 197 295 352 48 108 129 138 117 119 128 150 137 168 175 173 183 198 221 228 219 204 213 211 214 216 212 219 225 247 262 280 282 286 283 290 289 297 308 308 312 309 310 310
261 237 228 215 187 184 254 101 121 94 137 149 135 131 145 115 125 143 162 180 187 206 216 217 210 209 220 232 227 234 232 225 230 237 251 266 275 279 283 289 298 296 303 300 305 306 306 307 306
183 264 293 248 229 161 251 117 111 130 127 122 132 141 142 168 169 170 177 186 209 170 176 187 209 238 250 256 261 245 240 237 245 242 253 248 275 280 292 298 296 298 303 305 303 303 304 304 304
177 48 358 327 209 191 303 189 130 127 134 146 148 156 160 165 177 187 184 172 225 221 209 203 232 270 275 257 253 255 254 265 262 253 253 244 272 282 287 290 296 303 304 302 299 300 302 301 301
217 224 225 251 220 215 158 218 156 147 146 151 156 163 165 169 184 191 183 197 229 236 235 246 254 268 261 278 264 267 281 278 263 251 259 251 282 277 281 290 296 300 304 308 309 306 304 304 304
208 225 224 225 209 214 192 169 165 166 169 170 167 169 180 188 193 212 202 202 219 249 251 249 263 272 278 284 294 291 283 276 256 240 255 252 265 279 285 286 295 302 306 306 307 307 307 308 309
253 234 233 208 194 213 206 174 179 185 184 188 187 188 191 189 189 214 212 214 226 247 257 256 271 270 280 287 283 277 279 254 259 262 257 266 273 286 288 294 300 304 303 304 304 307 308 309 307
277 264 228 174 194 213 216 207 196 196 197 197 198 205 203 216 217 227 227 230 233 252 267 271 270 275 276 273 271 272 256 272 287 264 267 278 280 282 286 286 296 302 304 304 307 309 308 307 306
270 168 271 342 195 219 235 224 187 201 205 204 209 212 210 211 228 237 231 232 236 255 267 266 269 264 263 266 268 270 284 275 261 267 268 271 283 289 300 300 303 307 309 307 306 307 306 307 306
266 44 205 190 210 221 284 304 177 191 218 218 214 211 217 222 227 251 237 237 242 250 258 254 248 254 260 271 278 283 285 261 276 290 296 301 300 297 305 304 306 308 308 308 308 309 309 309 311
65 196 284 259 264 228 273 290 238 210 216 214 212 212 213 218 227 230 246 245 244 249 239 241 248 250 250 277 275 278 269 277 267 280 299 303 303 309 312 309 308 315 316 314 315 315 318 316 311
205 228 255 264 277 228 246 221 162 209 237 225 226 216 204 212 213 223 228 238 253 244 231 234 245 255 263 283 281 274 267 282 287 290 296 302 305 310 304 303 309 313 311 311 313 315 314 313 310
240 260 269 25 325 227 274 213 320 179 194 235 199 209 201 207 224 230 230 231 232 230 231 243 256 275 278 273 274 271 278 282 282 284 289 298 304 302 299 302 305 308 308 310 313 315 317 315 312
275 256 356 344 246 325 11 264 135 188 216 176 205 212 207 224 230 227 230 234 241 232 240 249 267 273 280 281 283 281 280 279 283 289 292 297 306 298 301 303 304 307 312 316 317 316 316 313 310
246 270 66 288 321 320 276 279 194 198 263 247 198 202 224 225 229 215 228 234 240 238 242 254 268 270 280 280 287 287 284 284 288 290 292 306 299 301 304 307 310 312 316 316 316 316 317 312 311
258 286 296 229 289 263 300 259 141 169 165 168 203 210 225 232 225 220 226 230 242 251 250 250 265 272 276 279 286 285 286 284 284 281 292 301 299 304 306 310 314 317 316 316 316 313 315 315 309
219 254 239 259 262 102 320 77 81 123 166 227 201 227 223 240 239 230 223 238 242 250 260 261 266 271 276 287 284 287 290 291 290 289 299 300 306 309 312 316 316 316 314 315 314 315 316 314 304
271 275 244 228 263 223 255 278 294 158 204 255 226 230 228 245 246 236 221 231 240 250 251 259 266 267 281 286 292 285 288 288 288 292 299 305 310 311 316 314 312 313 316 315 314 316 314 309 303